Vorticity
13 12 8 17 12 13 5 9 -2 12 2 25 -6 -2 10 5 -1 11 17 8 6 4 5 5 5 5 7 6 5 4 6 4 5 6 6 5 5 3 4 4 5 7 6 9 8 8 8 6 6
10 11 10 3 18 6 4 2 -5 -1 13 5 5 8 2 -4 6 15 -1 5 4 3 5 5 5 6 7 7 5 5 5 5 4 5 5 4 4 3 3 4 4 6 6 6 7 6 8 10 5
18 14 11 5 3 -2 15 -2 1 19 2 1 7 10 19 33 16 12 12 6 4 4 4 6 5 6 6 7 7 7 5 5 4 5 4 6 6 5 3 4 4 4 6 5 2 2 3 5 2
7 26 8 16 9 1 7 2 -5 10 14 3 20 19 3 4 7 12 6 6 4 4 5 5 5 5 5 6 6 7 8 8 4 5 5 4 4 6 6 4 4 4 3 4 4 3 0 10 7
10 22 19 8 6 -1 4 2 4 -1 9 2 18 8 18 8 11 8 7 5 4 5 5 5 5 5 5 5 5 6 6 7 9 6 6 4 5 5 4 5 4 4 3 4 3 3 3 1 4
7 12 7 9 4 5 2 -4 -0 3 13 10 7 19 8 8 11 6 5 3 4 6 6 5 6 6 6 5 6 5 5 5 6 8 7 7 4 4 4 4 4 4 3 4 4 4 4 3 4
3 23 3 1 2 17 15 -2 -1 6 15 9 10 20 11 15 19 3 2 5 1 8 5 5 5 5 6 7 7 7 6 5 5 5 7 7 6 7 5 4 5 4 3 3 4 4 4 2 4
19 16 -6 7 1 2 9 0 2 6 4 4 -5 22 15 4 -5 5 0 2 1 7 4 4 4 6 -5 7 7 7 7 7 6 5 5 6 6 7 8 9 5 4 4 4 4 4 4 4 3
-4 9 6 10 11 2 5 -14 3 -2 -2 11 4 19 10 10 1 0 6 7 6 7 3 5 5 10 17 9 11 13 14 8 5 7 6 6 6 6 7 7 7 8 6 5 3 3 3 3 2
-2 18 11 -6 -4 13 -0 5 7 1 11 -2 21 11 9 8 3 -0 3 5 6 3 12 6 7 7 8 7 3 0 13 15 16 4 6 8 6 7 5 6 7 6 7 7 7 6 5 4 3
22 -4 -5 -1 3 6 4 1 1 5 14 5 10 17 9 8 2 3 9 8 11 14 19 11 -3 2 4 16 -4 8 8 10 22 10 9 15 9 5 7 4 6 7 7 7 8 7 8 8 8
27 5 -9 5 -2 -15 19 16 -1 8 14 19 -4 12 11 6 0 -3 -9 -6 -5 14 7 15 13 6 4 14 11 3 7 11 3 9 11 8 5 7 10 8 7 5 5 6 6 5 7 8 7
-12 2 -2 2 5 4 3 15 12 14 8 13 9 3 11 5 6 9 8 4 -2 3 4 13 8 5 5 7 14 11 8 7 6 12 5 3 6 6 6 11 11 11 12 7 9 8 7 8 10
12 1 4 1 11 6 -5 11 13 4 12 3 -2 -1 4 22 9 11 10 -2 -2 -1 4 4 7 7 5 6 9 5 11 11 13 8 13 10 6 11 12 8 12 13 13 12 13 12 10 9 8
8 -3 6 -0 10 4 4 9 -0 8 1 9 0 2 -27 15 14 1 14 -2 0 -5 -7 1 4 8 8 7 9 10 3 7 12 7 9 12 11 11 7 10 4 8 9 9 9 8 8 9 11
-8 9 -9 -4 13 5 7 -0 2 7 6 2 7 10 -0 5 9 24 18 43 7 -3 -6 -2 5 2 3 8 11 -2 13 17 10 -1 9 16 17 7 6 8 5 5 10 4 2 4 10 9 9
-3 18 4 -10 19 -3 10 8 -1 10 10 3 -2 -30 61 -1 -5 26 22 14 16 12 -3 4 5 -0 7 7 9 6 8 5 9 -4 0 5 6 6 8 5 6 8 7 4 9 7 6 4 4
-4 -9 5 17 11 8 -7 10 13 7 10 9 -3 -8 1 -7 21 17 8 12 21 5 10 6 18 7 6 5 12 16 -2 5 2 3 4 5 6 4 6 7 -0 5 11 6 4 6 2 6 6
3 9 -10 -4 0 9 12 14 16 15 4 17 5 -0 5 -2 -7 19 10 15 10 4 16 20 19 19 12 3 10 14 12 1 -4 18 15 1 6 7 12 8 14 4 7 14 6 3 7 9 7
3 4 -10 11 19 1 -0 8 4 8 10 1 21 11 -10 9 20 13 16 20 0 17 10 13 33 2 5 12 7 9 7 8 13 4 1 3 5 8 5 6 7 8 4 9 6 6 7 6 6
10 5 17 3 8 -4 21 6 15 15 11 3 7 15 19 5 12 12 3 11 27 14 18 22 7 17 9 7 9 6 3 5 10 5 6 7 3 12 9 7 6 7 9 16 -2 5 6 5 3
3 -18 3 12 29 12 10 4 9 15 9 6 9 11 15 12 9 9 11 9 6 14 13 15 8 9 9 8 12 9 5 10 6 14 13 12 10 9 -14 4 -2 11 8 8 7 8 7 8 10
3 14 -2 10 8 29 19 -6 13 34 9 2 6 11 2 3 15 10 16 4 19 5 7 8 11 12 9 7 7 2 8 5 7 3 15 9 5 19 14 8 4 18 -1 10 11 8 7 8 8
-17 24 3 7 27 17 41 -22 0 34 -4 20 13 13 -4 3 10 10 7 15 2 11 6 4 6 4 4 4 6 1 4 5 7 9 3 6 11 10 11 12 9 8 -9 5 1 3 2 3 2
14 15 23 15 12 -3 20 18 -15 28 31 6 1 8 17 4 7 11 23 8 6 4 6 6 6 3 9 4 1 8 2 5 7 9 10 8 12 18 -1 1 2 2 0 8 5 2 -1 3 8
-4 -10 -15 10 6 4 14 6 9 9 5 1 -1 12 12 11 14 12 19 11 -1 8 5 3 8 -3 -0 7 6 7 8 5 7 7 9 9 11 32 -11 -2 6 6 12 12 10 10 12 12 12
21 27 5 2 19 12 8 13 27 4 1 2 0 12 6 10 5 6 12 12 11 -1 14 4 8 7 5 9 7 6 7 8 13 16 15 13 12 9 9 9 11 10 10 10 10 10 8 8 8
12 4 18 4 -2 7 19 11 -37 10 -5 10 -2 12 9 11 4 9 14 7 10 5 9 4 3 7 5 11 4 6 6 9 12 14 12 10 9 9 9 10 10 11 11 11 10 9 10 10 11
18 -0 21 32 7 1 7 8 8 20 -9 18 5 11 4 3 21 11 21 15 14 13 14 7 44 1 9 3 5 4 9 14 14 13 12 10 9 9 9 10 11 11 11 11 11 11 11 10 9
8 3 7 8 -3 4 -1 0 21 27 11 14 6 19 -1 5 4 11 13 10 14 8 9 9 3 6 5 3 2 9 12 14 14 12 12 12 11 10 11 11 10 10 10 10 10 9 8 8 8
Height
3167 3167 3167 3166 3170 3166 3166 3168 3167 3166 3164 3162 3164 3165 3165 3164 3164 3168 3167 3168 3168 3171 3171 3172 3173 3174 3175 3175 3174 3174 3175 3175 3174 3173 3174 3175 3175 3176 3176 3176 3176 3175 3175 3176 3176 3176 3178 3178 3180
3167 3168 3168 3167 3169 3167 3168 3168 3167 3167 3166 3166 3166 3165 3165 3164 3164 3164 3166 3168 3170 3173 3174 3175 3175 3176 3177 3177 3176 3176 3177 3178 3177 3177 3177 3177 3178 3177 3179 3180 3180 3180 3179 3179 3180 3181 3182 3183 3184
3169 3169 3170 3169 3169 3168 3168 3169 3168 3168 3167 3168 3167 3165 3165 3164 3164 3167 3169 3169 3172 3175 3177 3178 3178 3178 3179 3179 3179 3179 3179 3180 3180 3180 3179 3180 3181 3181 3181 3182 3183 3183 3184 3184 3183 3185 3185 3186 3186
3170 3171 3171 3170 3169 3170 3170 3169 3169 3168 3168 3168 3166 3165 3165 3166 3169 3170 3171 3171 3174 3177 3179 3180 3180 3180 3181 3181 3181 3181 3181 3181 3182 3182 3182 3182 3183 3183 3184 3184 3185 3186 3187 3187 3187 3188 3188 3188 3189
3172 3172 3172 3170 3170 3170 3171 3171 3171 3171 3171 3169 3168 3167 3167 3168 3171 3173 3173 3174 3178 3180 3180 3181 3182 3182 3183 3183 3184 3183 3183 3183 3183 3183 3184 3184 3185 3185 3186 3187 3188 3188 3188 3190 3190 3191 3191 3192 3193
3174 3174 3174 3172 3171 3172 3172 3173 3173 3173 3171 3169 3170 3169 3168 3171 3174 3174 3175 3177 3179 3182 3182 3182 3183 3184 3184 3184 3185 3185 3185 3184 3184 3185 3186 3187 3187 3187 3188 3189 3189 3190 3191 3192 3192 3192 3194 3194 3195
3175 3175 3174 3175 3174 3175 3174 3174 3175 3173 3172 3171 3170 3171 3170 3171 3175 3176 3177 3179 3181 3182 3183 3184 3184 3185 3185 3185 3185 3185 3186 3186 3186 3186 3187 3188 3188 3189 3189 3190 3191 3192 3193 3193 3194 3194 3195 3196 3197
3177 3176 3176 3176 3176 3176 3176 3177 3176 3175 3173 3173 3171 3172 3172 3172 3176 3177 3178 3180 3182 3183 3184 3185 3185 3186 3186 3186 3186 3186 3186 3187 3187 3187 3188 3189 3189 3190 3191 3191 3192 3193 3194 3194 3194 3195 3196 3196 3197
3179 3179 3178 3178 3177 3176 3177 3177 3176 3175 3174 3173 3172 3173 3175 3174 3176 3178 3180 3182 3183 3184 3185 3186 3186 3187 3186 3186 3186 3186 3186 3187 3188 3188 3188 3189 3190 3191 3191 3192 3192 3193 3194 3195 3195 3195 3195 3196 3197
3179 3180 3179 3178 3178 3177 3177 3177 3176 3175 3174 3173 3173 3173 3175 3176 3177 3179 3181 3183 3184 3185 3187 3187 3187 3187 3187 3188 3188 3188 3185 3186 3186 3187 3187 3188 3189 3190 3191 3192 3193 3193 3194 3195 3195 3196 3195 3196 3196
3179 3179 3179 3179 3178 3177 3177 3176 3176 3175 3175 3174 3174 3174 3175 3176 3178 3180 3182 3184 3185 3186 3186 3189 3189 3188 3188 3189 3189 3188 3186 3185 3186 3186 3186 3186 3188 3190 3191 3192 3193 3194 3195 3196 3196 3197 3197 3197 3197
3180 3180 3181 3181 3181 3180 3179 3178 3178 3177 3176 3175 3174 3174 3175 3176 3179 3181 3183 3185 3187 3187 3188 3189 3190 3190 3190 3190 3189 3190 3189 3188 3187 3186 3187 3187 3188 3190 3192 3193 3193 3194 3194 3196 3196 3196 3196 3197 3197
3181 3181 3182 3182 3182 3181 3180 3180 3180 3179 3178 3177 3176 3176 3177 3177 3178 3180 3181 3184 3188 3189 3190 3190 3190 3191 3192 3192 3191 3191 3190 3189 3188 3188 3188 3188 3188 3190 3191 3193 3194 3194 3194 3195 3195 3196 3196 3197 3197
3181 3182 3182 3183 3182 3181 3181 3180 3180 3180 3179 3179 3175 3176 3177 3176 3177 3179 3182 3183 3185 3190 3191 3191 3191 3191 3192 3192 3192 3192 3191 3190 3189 3189 3189 3189 3189 3190 3190 3192 3193 3193 3194 3194 3194 3195 3195 3195 3196
3183 3183 3183 3183 3182 3181 3181 3180 3180 3180 3179 3179 3180 3179 3178 3177 3176 3178 3181 3183 3184 3186 3191 3191 3190 3190 3191 3192 3192 3192 3192 3190 3191 3191 3192 3191 3191 3191 3191 3192 3193 3194 3194 3195 3195 3195 3195 3195 3195
3187 3186 3184 3184 3183 3181 3181 3180 3180 3179 3179 3180 3181 3184 3184 3181 3181 3179 3176 3179 3181 3183 3188 3191 3191 3190 3190 3192 3193 3193 3193 3192 3193 3194 3193 3193 3193 3193 3193 3193 3193 3194 3195 3195 3196 3196 3195 3195 3196
3187 3186 3185 3184 3183 3182 3181 3180 3178 3178 3178 3179 3182 3181 3182 3180 3180 3180 3177 3178 3179 3181 3183 3188 3189 3189 3190 3191 3192 3193 3194 3193 3194 3195 3195 3195 3194 3195 3194 3194 3194 3195 3195 3195 3195 3196 3195 3195 3194
3186 3185 3185 3184 3184 3181 3180 3180 3180 3180 3179 3179 3180 3180 3181 3179 3179 3179 3178 3177 3177 3180 3182 3185 3187 3188 3188 3191 3192 3193 3194 3195 3195 3195 3194 3195 3196 3195 3195 3194 3195 3194 3194 3195 3195 3196 3196 3195 3194
3184 3184 3183 3183 3184 3182 3180 3179 3177 3180 3180 3178 3178 3178 3180 3178 3177 3177 3176 3174 3173 3177 3181 3185 3187 3186 3188 3191 3192 3193 3194 3194 3194 3194 3195 3195 3196 3195 3195 3195 3194 3194 3194 3193 3194 3195 3194 3195 3193
3184 3184 3183 3183 3182 3182 3180 3178 3179 3178 3179 3178 3177 3178 3180 3180 3177 3176 3176 3173 3173 3176 3179 3183 3184 3185 3189 3191 3192 3192 3193 3193 3193 3193 3194 3195 3194 3194 3193 3193 3192 3193 3194 3193 3192 3192 3193 3193 3192
3182 3183 3183 3183 3182 3180 3177 3176 3177 3177 3175 3175 3174 3175 3177 3178 3177 3177 3176 3174 3174 3176 3180 3181 3184 3187 3189 3192 3192 3192 3192 3192 3193 3193 3193 3193 3191 3191 3191 3190 3191 3192 3192 3192 3192 3192 3191 3191 3190
3181 3182 3182 3180 3179 3177 3176 3176 3174 3175 3175 3174 3173 3173 3175 3176 3178 3176 3175 3175 3177 3178 3182 3183 3185 3187 3189 3190 3191 3192 3191 3193 3193 3192 3191 3191 3190 3190 3190 3190 3188 3189 3190 3189 3189 3189 3188 3188 3186
3180 3180 3179 3178 3178 3176 3175 3178 3172 3172 3171 3171 3171 3173 3175 3175 3176 3176 3175 3175 3177 3178 3182 3184 3186 3188 3190 3190 3190 3191 3192 3193 3192 3190 3191 3190 3189 3189 3190 3188 3186 3186 3188 3187 3186 3186 3185 3184 3184
3179 3179 3180 3178 3177 3181 3175 3176 3173 3173 3172 3169 3168 3169 3171 3173 3175 3176 3176 3175 3176 3177 3181 3184 3186 3188 3188 3188 3188 3190 3191 3192 3190 3190 3190 3191 3190 3189 3187 3186 3185 3185 3185 3185 3185 3184 3183 3182 3181
3179 3178 3179 3179 3179 3176 3173 3175 3171 3168 3166 3166 3168 3170 3170 3171 3174 3176 3176 3176 3176 3178 3181 3183 3186 3188 3187 3186 3187 3189 3189 3188 3189 3188 3188 3187 3187 3187 3187 3184 3184 3184 3184 3183 3181 3180 3179 3179 3177
3177 3180 3177 3178 3179 3173 3173 3172 3169 3167 3165 3163 3165 3167 3169 3171 3172 3175 3175 3176 3176 3179 3181 3183 3186 3184 3185 3186 3187 3187 3187 3187 3186 3184 3184 3184 3184 3182 3184 3183 3182 3181 3179 3177 3176 3175 3174 3173 3172
3174 3174 3174 3170 3173 3172 3172 3170 3168 3165 3165 3163 3163 3166 3169 3169 3170 3171 3173 3174 3177 3178 3181 3185 3185 3186 3185 3185 3186 3186 3186 3184 3182 3180 3179 3179 3179 3179 3179 3178 3176 3175 3174 3172 3171 3170 3169 3168 3167
3170 3170 3169 3168 3173 3174 3171 3170 3165 3166 3165 3163 3161 3165 3167 3168 3170 3171 3172 3174 3176 3179 3180 3181 3180 3183 3185 3185 3186 3184 3183 3181 3179 3178 3176 3175 3175 3175 3175 3174 3173 3172 3171 3169 3167 3165 3164 3162 3161
3166 3164 3164 3165 3166 3166 3171 3166 3161 3164 3164 3161 3160 3163 3164 3166 3168 3170 3171 3173 3176 3177 3178 3179 3174 3181 3184 3185 3185 3183 3180 3177 3176 3175 3174 3173 3172 3172 3171 3169 3168 3167 3166 3165 3163 3161 3160 3159 3158
3159 3159 3159 3159 3161 3160 3160 3161 3160 3161 3162 3160 3160 3162 3163 3166 3168 3168 3170 3172 3173 3175 3177 3177 3178 3180 3182 3183 3184 3182 3179 3175 3172 3171 3171 3170 3169 3169 3169 3167 3166 3164 3162 3161 3159 3158 3157 3156 3154